Location: Goudex
(43.3760°N, 0.9543°E)
Time: 00:10:22
(UTC+00:00)

Cosmos 1125 Rocket - Pass Details

Date: 20 November 2019
Orbit: 758 x 779 km, 74.0° (Epoch: 08 December)

Event Time Altitude Azimuth Distance (km) Brightness Sun altitude
Rises 05:32:21 0° 204° (SSW) 3,242 6.6 -15.0°
Reaches altitude 10° 05:34:44 10° 206° (SSW) 2,316 5.9 -14.6°
Maximum altitude 05:39:59 74° 291° (WNW) 808 3.4 -13.6°
Drops below altitude 10° 05:45:16 10° 17° (NNE) 2,319 6.0 -12.7°
Sets 05:47:39 0° 19° (NNE) 3,246 6.8 -12.3°
